View Data : Daily Precipitation Reports By State
 
Iowa Daily Precipitation Reports
Display Date:
Showing 62 Records.    
DateTimeStation NumberStation NameTotal Precip in.New Snow in.Total Snow in.StateCountyView
10/22/2014  5:00 AM  IA-BH-8  Waterloo 3.0 NNW  0.00 0.0 NA IABlack Hawk  View
10/22/2014  5:00 AM  IA-FY-2  Oelwein 0.8 WNW  0.00 0.0 NA IAFayette  View
10/22/2014  5:00 AM  IA-WB-12  Fort Dodge 5.6 WNW  0.00 NA NA IAWebster  View
10/22/2014  5:06 AM  IA-BN-12  Boone 4.5 WSW  0.00 NA NA IABoone  View
10/22/2014  5:30 AM  IA-MS-2  Marshalltown 1.4 ENE  0.00 0.0 NA IAMarshall  View
10/22/2014  5:30 AM  IA-ST-4  Davenport 0.9 SSW  0.00 0.0 0.0 IAScott  View
10/22/2014  5:30 AM  IA-ST-23  Davenport 2.1 SW  0.00 0.0 0.0 IAScott  View
10/22/2014  5:30 AM  IA-TY-2  New Market 4.7 N  0.00 0.0 NA IATaylor  View
10/22/2014  5:35 AM  IA-TY-1  Bedford 0.6 S  0.00 0.0 NA IATaylor  View
10/22/2014  5:36 AM  IA-BH-6  Waterloo 1.9 SSE  0.00 NA NA IABlack Hawk  View
10/22/2014  6:00 AM  IA-BC-5  Walker 3.5 NE  0.00 0.0 NA IABuchanan  View
10/22/2014  6:00 AM  IA-HN-2  Britt 0.7 N  0.00 0.0 NA IAHancock  View
10/22/2014  6:00 AM  IA-HR-10  Missouri Valley 2.1 NNE  0.00 0.0 NA IAHarrison  View
10/22/2014  6:00 AM  IA-LN-3  Ely 0.5 SE  0.00 0.0 NA IALinn  View
10/22/2014  6:00 AM  IA-MR-1  Albia 5.4 ENE  0.00 0.0 NA IAMonroe  View
10/22/2014  6:00 AM  IA-SX-5  Alton 0.7 ESE  0.00 0.0 NA IASioux  View
10/22/2014  6:00 AM  IA-WB-3  Fort Dodge 1.6 ENE  0.00 0.0 NA IAWebster  View
10/22/2014  6:00 AM  IA-WH-1  Decorah 7.9 ENE  0.00 0.0 NA IAWinneshiek  View
10/22/2014  6:20 AM  IA-ST-8  Bettendorf 2.2 SE  0.00 0.0 0.0 IAScott  View
10/22/2014  6:30 AM  IA-HR-3  Logan 1.5 NNW  0.00 0.0 0.0 IAHarrison  View
10/22/2014  6:49 AM  IA-LN-9  Marion 1.2 NE  0.00 NA NA IALinn  View
10/22/2014  7:00 AM  IA-BH-7  Cedar Falls 1.4 SSE  0.00 0.0 NA IABlack Hawk  View
10/22/2014  7:00 AM  IA-CR-5  Manning 3.3 E  0.00 0.0 NA IACarroll  View
10/22/2014  7:00 AM  IA-CK-3  Cleghorn 2.5 NNE  0.00 0.0 0.0 IACherokee  View
10/22/2014  7:00 AM  IA-CN-2  Calamus 2.0 NE  0.00 0.0 NA IAClinton  View
10/22/2014  7:00 AM  IA-CN-5  Camanche 1.2 W  0.00 0.0 NA IAClinton  View
10/22/2014  7:00 AM  IA-CN-8  Delmar 2.3 NW  0.00 0.0 NA IAClinton  View
10/22/2014  7:00 AM  IA-DM-7  Burlington 6.5 SSW  0.00 0.0 NA IADes Moines  View
10/22/2014  7:00 AM  IA-HM-1  Webster City 0.5 NW  0.00 0.0 NA IAHamilton  View
10/22/2014  7:00 AM  IA-IA-6  Amana 4.7 W  0.00 0.0 NA IAIowa  View
10/22/2014  7:00 AM  IA-JH-9  Kalona 7.3 NNW  0.00 0.0 NA IAJohnson  View
10/22/2014  7:00 AM  IA-JH-10  Coralville 1.8 NW  0.00 0.0 NA IAJohnson  View
10/22/2014  7:00 AM  IA-LE-8  Fort Madison 0.9 NE  0.00 0.0 NA IALee  View
10/22/2014  7:00 AM  IA-LN-4  Cedar Rapids 3.4 NW  0.00 0.0 NA IALinn  View
10/22/2014  7:00 AM  IA-LN-23  Robins 0.4 SSE  0.00 0.0 NA IALinn  View
10/22/2014  7:00 AM  IA-LY-2  Lester 0.2 E  0.00 0.0 NA IALyon  View
10/22/2014  7:00 AM  IA-MH-6  Rose Hill 4.0 NNW  0.00 0.0 NA IAMahaska  View
10/22/2014  7:00 AM  IA-MA-5  Pella 0.9 N  0.00 0.0 NA IAMarion  View
10/22/2014  7:00 AM  IA-MS-5  Marshalltown 1.7 NW  0.00 0.0 NA IAMarshall  View
10/22/2014  7:00 AM  IA-PK-3  Des Moines 4.5 WNW  0.00 0.0 NA IAPolk  View
10/22/2014  7:00 AM  IA-PK-14  Ankeny 2.3 WNW  0.00 0.0 NA IAPolk  View
10/22/2014  7:00 AM  IA-PK-21  Johnston 3.7 NNW  0.00 0.0 0.0 IAPolk  View
10/22/2014  7:00 AM  IA-PK-37  Windsor Heights 0.8 SE  0.00 0.0 0.0 IAPolk  View
10/22/2014  7:00 AM  IA-PK-73  Des Moines 4.1 N  0.00 0.0 NA IAPolk  View
10/22/2014  7:00 AM  IA-PK-74  Saylorville 2.6 SSW  0.00 0.0 NA IAPolk  View
10/22/2014  7:00 AM  IA-PT-7  Council Bluffs 3.6 E  0.00 NA NA IAPottawattamie  View
10/22/2014  7:00 AM  IA-ST-3  Park View 0.2 WSW  0.00 NA NA IAScott  View
10/22/2014  7:00 AM  IA-SR-8  Gilbert 0.3 SE  0.00 0.0 NA IAStory  View
10/22/2014  7:00 AM  IA-SR-17  Ames 0.9 ENE  0.00 0.0 NA IAStory  View
10/22/2014  7:00 AM  IA-UN-1  Creston 0.7 NE  0.00 0.0 NA IAUnion  View
10/22/2014  7:00 AM  IA-WP-5  Ottumwa 4.3 S  0.00 0.0 NA IAWapello  View
10/22/2014  7:00 AM  IA-WS-2  Ainsworth 7.4 N  0.00 0.0 NA IAWashington  View
10/22/2014  7:00 AM  IA-WH-3  Decorah 0.8 SW  0.00 0.0 NA IAWinneshiek  View
10/22/2014  7:40 AM  IA-DM-8  Burlington 0.8 SSE  0.00 NA NA IADes Moines  View
10/22/2014  7:44 AM  IA-CG-4  Mason City 1.3 W  0.00 NA NA IACerro Gordo  View
10/22/2014  8:00 AM  IA-FR-1  Latimer 1.9 NE  0.00 0.0 NA IAFranklin  View
10/22/2014  8:00 AM  IA-GT-3  Bagley 0.1 W  0.00 0.0 NA IAGuthrie  View
10/22/2014  8:00 AM  IA-LE-7  Keokuk 0.6 NE  0.00 0.0 NA IALee  View
10/22/2014  8:00 AM  IA-LN-5  Cedar Rapids 2.1 ENE  0.00 0.0 NA IALinn  View
10/22/2014  8:00 AM  IA-PT-13  Council Bluffs 2.1 SSE  0.00 0.0 NA IAPottawattamie  View
10/22/2014  8:00 AM  IA-SX-6  Orange City 2.5 S  0.00 0.0 NA IASioux  View
10/22/2014  8:00 AM  IA-SR-29  Ames 2.5 W  0.00 0.0 NA IAStory  View